Flag for Germany Weather past 2 weeks in Cloppenburg, Lower Saxony, Germany

Now
72 °F

Mild.


Feels Like: 77 °F
Forecast: 58 / 83 °F
Wind: 3 mph from South

Location: Meppen-Mil

Current Time: Aug 29, 2015 at 4:44:20 PM

Latest Report: Aug 29, 2015 at 3:20 PM


Visibility: 5 mi

Pressure: 30.18 "Hg

Humidity: 50%

Dew point: 52 °F

Location of CloppenburgLocation

Historic Weather in Cloppenburg — Graph

°F

Cloppenburg temperature yesterday

Maximum temperature yesterday: 66 °F (at 2:20 PM)
Minimum temperature yesterday: 54 °F (at 11:20 PM)
Average temperature yesterday: 60 °F

Past Weeks' High & Low Weather Summary

 TemperatureHumidityPressure
High81 °F (Aug 14, 3:20 PM)100% (Aug 19, 5:20 AM)30.24 "Hg (Aug 19, 5:20 AM)
Low46 °F (Aug 29, 5:20 AM)28% (Aug 22, 4:20 PM)29.50 "Hg (Aug 24, 5:20 PM)
Average63 °F77%29.93 "Hg
* Reported Aug 14 3:20 PM — Aug 29 3:20 PM, Cloppenburg, Weather by CustomWeather, © 2015

Note: Actual official high and low records may vary slightly from our data, if they occured in-between our weather recording intervals... More about our weather records

Advertising

Cloppenburg weather history for previous 24 hours

 ConditionsComfort  
Time TempWeatherWind HumidityBarometerVisibility
3:20 PM
Sat, Aug 29
72 °FMild.3 mph50%30.18 "Hg5 mi
2:20 PM72 °FMild.6 mph44%30.18 "Hg5 mi
1:20 PM72 °FMild.6 mph47%30.18 "Hg5 mi
11:20 AM68 °FMild.7 mph60%30.21 "Hg4 mi
10:20 AM64 °FMild.6 mph73%30.21 "Hg4 mi
9:20 AM61 °FCool.3 mph83%30.21 "Hg4 mi
7:20 AM48 °FCool.1 mph94%30.18 "Hg2 mi
6:20 AM46 °FCool.1 mph93%30.18 "Hg1 mi
5:20 AM46 °FCool.1 mph100%30.18 "Hg1 mi
4:20 AM48 °FCool.No wind94%30.18 "Hg1 mi
3:20 AM48 °FCool.1 mph94%30.15 "Hg0 mi
2:20 AM50 °FCool.1 mph94%30.18 "HgN/A
1:20 AM50 °FCool.No wind94%30.15 "HgN/A
12:20 AM52 °FCool.No wind94%30.15 "Hg0 mi
11:20 PM
Fri, Aug 28
54 °FCool.1 mph94%30.15 "Hg0 mi
10:20 PM55 °FCool.1 mph94%30.12 "Hg2 mi
9:20 PM59 °FCool.1 mph82%30.12 "Hg5 mi
8:20 PM61 °FCool.2 mph77%30.09 "Hg5 mi
7:20 PM64 °FMild.5 mph73%30.09 "Hg5 mi
6:20 PM64 °FMild.6 mph68%30.07 "Hg5 mi
5:20 PM64 °FMild.6 mph68%30.07 "Hg5 mi
4:20 PM66 °FMild.7 mph64%30.07 "Hg5 mi
Weather by CustomWeather, © 2015

See weather overviewHow to use our weather pages